This is the latest recevied weather packets stored in our database for station/object KG7BDA. If no packets are shown the sender has not sent any weather packets the latest 1 day(s).
| Time | Temp. | Humidity | Pressure | Rain* | Wind** | Luminosity | Snow |
|---|---|---|---|---|---|---|---|
| 1778039120 | 18.89° C | 33% | 1010.7 hPa | 0 mm | 6.26 m/s, 357° | - | - |
| 1778038761 | 18.89° C | 34% | 1010.7 hPa | 0 mm | 5.81 m/s, 358° | - | - |
| 1778038402 | 18.89° C | 34% | 1010.6 hPa | 0 mm | 6.26 m/s, 357° | - | - |
| 1778038041 | 18.89° C | 34% | 1010.4 hPa | 0 mm | 5.81 m/s, 357° | - | - |
| 1778037681 | 18.89° C | 34% | 1010.4 hPa | 0 mm | 5.36 m/s, 358° | - | - |
| 1778037321 | 18.89° C | 34% | 1010.3 hPa | 0 mm | 4.47 m/s, 2° | - | - |
| 1778036961 | 19.44° C | 33% | 1010.2 hPa | 0 mm | 5.36 m/s, 6° | - | - |
| 1778036602 | 20° C | 32% | 1010 hPa | 0 mm | 5.81 m/s, 360° | - | - |
| 1778036241 | 20° C | 31% | 1009.8 hPa | 0 mm | 6.26 m/s, 358° | - | - |
| 1778035881 | 20° C | 31% | 1009.9 hPa | 0 mm | 6.26 m/s, 356° | - | - |
| 1778035521 | 20.56° C | 31% | 1009.9 hPa | 0 mm | 6.26 m/s, 352° | - | - |
| 1778035162 | 20.56° C | 30% | 1009.8 hPa | 0 mm | 7.15 m/s, 346° | - | - |
| 1778034801 | 21.11° C | 29% | 1009.8 hPa | 0 mm | 6.71 m/s, 345° | - | - |
| 1778034441 | 21.11° C | 29% | 1009.7 hPa | 0 mm | 7.15 m/s, 343° | - | - |
| 1778034082 | 21.67° C | 29% | 1009.7 hPa | 0 mm | 7.15 m/s, 341° | - | - |
| 1778033721 | 21.67° C | 28% | 1009.5 hPa | 0 mm | 7.6 m/s, 345° | - | - |
| 1778033361 | 21.67° C | 27% | 1009.5 hPa | 0 mm | 8.49 m/s, 353° | - | - |
| 1778033002 | 22.22° C | 27% | 1009.3 hPa | 0 mm | 7.6 m/s, 349° | - | - |
| 1778032641 | 22.22° C | 26% | 1009.2 hPa | 0 mm | 8.05 m/s, 351° | - | - |
| 1778032281 | 22.22° C | 26% | 1009.2 hPa | 0 mm | 8.94 m/s, 347° | - | - |
| 1778031921 | 22.22° C | 25% | 1009.1 hPa | 0 mm | 10.73 m/s, 351° | - | - |
| 1778031561 | 22.78° C | 26% | 1009.2 hPa | 0 mm | 8.05 m/s, 340° | - | - |
| 1778031201 | 22.78° C | 25% | 1009.3 hPa | 0 mm | 10.73 m/s, 350° | - | - |
| 1778030841 | 22.78° C | 25% | 1009.1 hPa | 0 mm | 9.83 m/s, 348° | - | - |
| 1778030481 | 22.78° C | 26% | 1009.1 hPa | 0 mm | 8.94 m/s, 341° | - | - |
* Rain latest hour (hover to see other rain measurements)
** Current wind speed in m/s (hover to see current wind gust speed)